GW2791 Weather Reports


time (UTC)temp
F
wind
direction
speed
knots
gust
knots
rain 1hr
in
rain 24hr
in
rain mn
in
humidity
%
barometer
mb
20260507220620 53 213 2.6 2.6 0.00 0.03 0.03 93 1009.6
20260507220118 53 274 0.0 0.0 0.00 0.03 0.03 93 1009.5
20260507215614 53 232 0.9 1.7 0.00 0.03 0.03 94 1009.7
20260507215112 53 284 1.7 2.6 0.00 0.03 0.03 94 1009.6
20260507214609 53 252 0.0 0.0 0.00 0.03 0.03 94 1009.6
20260507214105 53 155 0.9 0.9 0.00 0.03 0.03 93 1009.6
20260507213601 54 136 1.7 2.6 0.00 0.03 0.03 93 1009.5
20260507213059 54 183 1.7 1.7 0.00 0.03 0.03 93 1009.6
20260507212554 55 233 0.9 0.9 0.00 0.03 0.03 91 1009.6
20260507212051 55 252 0.9 1.7 0.00 0.03 0.03 91 1009.6
20260507211548 55 240 1.7 1.7 0.00 0.03 0.03 91 1009.5
20260507211044 55 285 0.9 1.7 0.00 0.03 0.03 90 1009.7
20260507210542 55 233 1.7 1.7 0.00 0.03 0.03 90 1009.3
20260507210038 55 224 0.9 1.7 0.00 0.03 0.03 88 1009.5
20260507205535 54 195 0.0 0.9 0.00 0.03 0.03 88 1009.5
20260507205031 54 240 1.7 2.6 0.00 0.03 0.03 89 1009.6
20260507204527 55 273 0.0 0.0 0.00 0.03 0.03 89 1009.6
20260507204025 55 144 2.6 2.6 0.00 0.03 0.03 88 1009.5
20260507203523 55 205 2.6 4.3 0.00 0.03 0.03 89 1009.6
20260507203020 55 268 1.7 1.7 0.00 0.03 0.03 89 1009.5
20260507202516 54 234 2.6 2.6 0.00 0.03 0.03 89 1009.8
20260507202012 54 287 1.7 2.6 0.00 0.03 0.03 90 1009.6
20260507201508 54 238 0.0 0.0 0.00 0.03 0.03 90 1009.7
20260507201004 54 244 1.7 1.7 0.00 0.03 0.03 90 1009.5
20260507200500 54 108 1.7 1.7 0.00 0.03 0.03 91 1009.6
20260507195955 54 243 1.7 1.7 0.00 0.03 0.03 91 1009.7
20260507195453 54 152 0.9 1.7 0.00 0.03 0.03 91 1009.8
20260507194951 54 233 1.7 2.6 0.00 0.03 0.03 94 1010.2
20260507194447 54 227 0.9 1.7 0.00 0.03 0.03 93 1010.2
20260507193943 54 235 1.7 1.7 0.00 0.03 0.03 93 1010.1
20260507193440 54 254 0.9 0.9 0.00 0.03 0.03 95 1010.3
20260507192937 54 215 1.7 1.7 0.00 0.03 0.03 95 1010.3
20260507192433 54 231 0.9 0.9 0.00 0.03 0.03 94 1010.3
20260507191930 54 238 2.6 2.6 0.00 0.03 0.03 94 1010.3
20260507191426 54 211 1.7 1.7 0.00 0.03 0.03 95 1010.1
20260507190922 54 251 1.7 2.6 0.00 0.03 0.03 94 1010.1
20260507190421 54 235 1.7 1.7 0.00 0.03 0.03 94 1010.3
20260507185920 55 252 0.0 0.9 0.00 0.03 0.03 93 1010.6
20260507185416 56 227 1.7 1.7 0.00 0.03 0.03 91 1010.2
20260507184913 56 305 1.7 2.6 0.00 0.03 0.03 90 1010.4
20260507184411 57 267 0.0 0.0 0.00 0.03 0.03 88 1010.2
20260507183908 58 354 0.0 0.9 0.00 0.03 0.03 89 1010.6
20260507183405 58 314 0.0 0.9 0.00 0.03 0.03 88 1010.5
20260507182903 57 269 0.0 0.9 0.00 0.03 0.03 86 1010.6
20260507182357 58 277 0.0 0.9 0.00 0.03 0.03 88 1010.6
20260507181855 58 262 0.9 1.7 0.00 0.03 0.03 87 1010.5
20260507181350 57 333 0.9 0.9 0.00 0.03 0.03 91 1010.5
20260507180847 56 272 0.0 0.0 0.00 0.03 0.03 92 1010.3
20260507180344 56 343 0.0 0.0 0.00 0.03 0.03 92 1010.5
20260507175840 55 273 0.0 0.0 0.00 0.03 0.03 93 1010.7
20260507175337 55 288 0.0 0.9 0.00 0.03 0.03 93 1010.5
20260507174835 54 6 0.9 1.7 0.00 0.03 0.03 94 1010.7
20260507174332 55 286 0.0 0.0 0.00 0.03 0.03 95 1010.8
20260507173829 54 274 0.0 0.0 0.00 0.03 0.03 96 1010.9
20260507173326 54 288 0.0 0.0 0.00 0.03 0.03 96 1010.9
20260507172822 54 10 1.7 2.6 0.00 0.03 0.03 96 1010.7
20260507172319 54 8 2.6 2.6 0.00 0.03 0.03 96 1010.7
20260507171815 54 22 2.6 2.6 0.00 0.03 0.03 96 1010.9
20260507171312 54 23 1.7 2.6 0.00 0.03 0.03 95 1010.8
20260507170809 53 42 2.6 2.6 0.00 0.03 0.03 94 1011.1
20260507170306 54 39 2.6 2.6 0.00 0.03 0.03 94 1011.4
20260507165801 54 47 2.6 2.6 0.00 0.03 0.03 94 1011.3
20260507165258 54 21 2.6 2.6 0.00 0.03 0.03 94 1011.2
20260507164754 54 329 0.9 0.9 0.00 0.03 0.03 94 1011.2
20260507164251 54 38 4.3 5.2 0.00 0.03 0.03 94 1011.4
20260507163748 54 63 0.9 1.7 0.00 0.03 0.03 94 1011.2
20260507163246 54 350 2.6 2.6 0.00 0.03 0.03 95 1011.5
20260507162742 54 55 0.9 1.7 0.00 0.03 0.03 95 1011.3
20260507162238 54 35 3.5 5.2 0.00 0.03 0.03 96 1011.5
20260507161735 54 12 4.3 5.2 0.00 0.03 0.03 97 1011.8
20260507161231 54 356 0.0 0.0 0.00 0.03 0.03 97 1011.8
20260507160727 54 50 0.9 0.9 0.00 0.03 0.03 98 1011.8
20260507160224 53 33 0.0 0.0 0.00 0.03 0.03 98 1011.4
20260507155720 53 333 1.7 1.7 0.00 0.03 0.03 98 1011.8
20260507155216 53 23 1.7 1.7 0.00 0.03 0.03 98 1011.7
20260507154713 53 354 1.7 1.7 0.00 0.03 0.03 99 1011.8
20260507154210 53 49 3.5 4.3 0.00 0.03 0.03 99 1011.7
20260507153707 53 59 2.6 2.6 0.00 0.03 0.03 99 1012.0
20260507153203 53 52 1.7 1.7 0.07 0.03 0.03 99 1012.0
20260507152700 53 316 1.7 2.6 0.07 0.03 0.03 99 1012.1
20260507152156 53 22 2.6 5.2 0.00 0.02 0.02 98 1011.7
20260507151652 53 11 2.6 2.6 0.00 0.02 0.02 98 1012.2
20260507151149 53 46 1.7 2.6 0.00 0.02 0.02 98 1012.3
20260507150646 53 49 1.7 2.6 0.00 0.02 0.02 99 1012.1
20260507150143 53 38 0.9 0.9 0.00 0.02 0.02 99 1011.9
20260507145638 53 326 0.0 0.0 0.00 0.02 0.02 99 1011.7
20260507145136 53 32 0.0 0.0 0.00 0.02 0.02 99 1011.9
20260507144632 53 7 0.9 0.9 0.00 0.02 0.02 98 1011.9
20260507144130 53 34 0.9 1.7 0.00 0.02 0.02 98 1011.9
20260507143626 53 34 3.5 4.3 0.00 0.02 0.02 98 1011.9
20260507143124 53 47 0.0 0.0 0.00 0.02 0.02 99 1011.9
20260507142619 53 36 2.6 2.6 0.00 0.02 0.02 99 1011.8
20260507142116 53 9 1.7 1.7 0.00 0.02 0.02 98 1012.1
20260507141612 53 35 1.7 2.6 0.05 0.02 0.02 98 1012.2
20260507141109 53 46 0.9 0.9 0.05 0.02 0.02 97 1012.5
20260507140606 53 30 1.7 1.7 0.00 0.01 0.01 97 1012.1
20260507140103 53 25 1.7 2.6 0.00 0.01 0.01 97 1012.1
20260507135600 53 36 1.7 1.7 0.00 0.01 0.01 97 1012.2
20260507135057 53 58 2.6 4.3 0.00 0.01 0.01 96 1012.3
20260507134554 54 69 0.0 0.0 0.00 0.01 0.01 97 1012.2
20260507134050 54 26 4.3 5.2 0.00 0.01 0.01 95 1012.2
20260507133546 54 37 2.6 4.3 0.00 0.01 0.01 95 1012.3
20260507133044 54 331 2.6 2.6 0.00 0.01 0.01 95 1012.2
20260507132540 54 65 2.6 2.6 0.00 0.01 0.01 95 1012.3
20260507132037 55 41 2.6 2.6 0.00 0.01 0.01 96 1012.0
20260507131534 54 45 2.6 2.6 0.00 0.01 0.01 95 1012.3
20260507131031 54 56 0.9 1.7 0.00 0.01 0.01 97 1011.9
20260507130528 54 48 2.6 2.6 0.00 0.01 0.01 97 1012.1
20260507130026 54 45 1.7 2.6 0.00 0.01 0.01 97 1012.0
20260507125524 54 48 2.6 2.6 0.00 0.01 0.01 97 1012.2
20260507125021 54 283 0.0 0.0 0.00 0.01 0.01 98 1011.9
20260507124517 54 57 0.9 1.7 0.00 0.01 0.01 98 1012.1
20260507124016 54 47 2.6 2.6 0.00 0.01 0.01 98 1012.1
20260507123513 54 3 1.7 1.7 0.00 0.01 0.01 99 1011.8
20260507123010 54 28 2.6 4.3 0.00 0.01 0.01 99 1012.0
20260507122505 54 43 2.6 4.3 0.00 0.01 0.01 99 1011.9
20260507122001 54 55 2.6 2.6 0.00 0.01 0.01 99 1012.0
20260507121456 54 43 1.7 2.6 0.00 0.01 0.01 99 1012.1
20260507120953 54 56 3.5 4.3 0.00 0.01 0.01 99 1012.0
20260507120449 54 62 1.7 1.7 0.00 0.01 0.01 99 1012.0
20260507115946 54 56 1.7 1.7 0.00 0.01 0.01 99 1011.7
20260507115442 54 53 0.9 1.7 0.00 0.01 0.01 99 1011.6
20260507114938 54 35 2.6 2.6 0.00 0.01 0.01 99 1011.9
20260507114434 54 43 4.3 5.2 0.00 0.01 0.01 99 1011.7
20260507113932 54 53 3.5 4.3 0.00 0.01 0.01 99 1011.6
20260507113429 55 352 2.6 2.6 0.00 0.01 0.01 99 1011.8
20260507112926 55 343 2.6 2.6 0.00 0.01 0.01 99 1011.5
20260507112424 55 48 4.3 6.1 0.00 0.01 0.01 99 1011.4
20260507111921 55 45 6.1 7.0 0.00 0.01 0.01 99 1011.4
20260507111418 55 28 4.3 5.2 0.00 0.01 0.01 99 1011.3
20260507110914 55 21 1.7 2.6 0.00 0.01 0.01 99 1011.6
20260507110410 55 350 2.6 4.3 0.00 0.01 0.01 99 1011.4
20260507105907 55 65 2.6 5.2 0.00 0.01 0.01 99 1011.2
20260507105404 55 12 1.7 1.7 0.00 0.01 0.01 99 1010.9
20260507104901 55 37 2.6 2.6 0.00 0.01 0.01 99 1010.6
20260507104357 55 10 2.6 4.3 0.00 0.01 0.01 99 1010.6
20260507103853 55 332 1.7 2.6 0.00 0.01 0.01 99 1010.8
20260507103350 56 37 2.6 4.3 0.00 0.01 0.01 99 1010.7
20260507102846 56 18 2.6 4.3 0.00 0.01 0.01 99 1010.7
20260507102343 56 41 2.6 4.3 0.00 0.01 0.01 99 1010.8
20260507101839 56 332 0.9 1.7 0.00 0.01 0.01 99 1011.0
20260507101334 56 46 0.0 0.9 0.00 0.01 0.01 99 1010.9
20260507100831 56 48 4.3 5.2 0.00 0.01 0.01 99 1010.8
20260507100329 56 63 1.7 2.6 0.00 0.01 0.01 98 1011.0
20260507095827 56 33 4.3 6.1 0.00 0.01 0.01 98 1010.5
20260507095323 56 338 0.9 1.7 0.00 0.01 0.01 99 1010.9
20260507094821 56 52 2.6 4.3 0.00 0.01 0.01 99 1010.9
20260507094317 56 54 4.3 4.3 0.00 0.01 0.01 99 1010.7
20260507093814 56 12 1.7 1.7 0.00 0.01 0.01 99 1010.5
20260507093312 56 18 2.6 5.2 0.00 0.01 0.01 99 1010.5
20260507092810 56 18 6.1 7.0 0.00 0.01 0.01 99 1010.3
20260507092307 56 45 0.9 0.9 0.00 0.01 0.01 98 1010.5
20260507091803 57 22 1.7 1.7 0.00 0.01 0.01 98 1010.5
20260507091259 57 58 4.3 6.1 0.00 0.01 0.01 99 1010.6
20260507090759 57 43 3.5 5.2 0.00 0.01 0.01 99 1010.5
20260507090256 57 29 2.6 4.3 0.00 0.01 0.01 99 1010.5
20260507085753 58 41 6.1 6.1 0.00 0.01 0.01 99 1010.6
20260507085250 58 29 5.2 7.0 0.00 0.01 0.01 99 1010.6
20260507084748 59 34 1.7 4.3 0.00 0.01 0.01 99 1010.6
20260507084244 60 57 2.6 2.6 0.00 0.01 0.01 99 1010.1
20260507083741 61 46 3.5 4.3 0.00 0.01 0.01 97 1010.1
20260507083238 62 64 0.0 0.9 0.00 0.01 0.01 93 1009.9
20260507082734 62 264 0.0 0.9 0.00 0.01 0.01 91 1009.9
20260507082229 62 274 0.0 0.0 0.00 0.01 0.01 91 1010.0
20260507081727 60 32 1.7 1.7 0.00 0.01 0.01 97 1009.9
20260507081223 60 298 0.0 0.0 0.00 0.01 0.01 99 1009.7
20260507080720 61 307 0.0 0.0 0.00 0.01 0.01 99 1009.5
20260507080216 61 260 0.9 1.7 0.00 0.01 0.01 99 1009.8
20260507075711 61 260 0.0 0.0 0.00 0.01 0.01 99 1009.5
20260507075208 61 169 0.9 0.9 0.00 0.01 0.01 99 1009.6
20260507074704 61 245 0.9 0.9 0.00 0.01 0.01 99 1009.7
20260507074203 61 261 0.0 0.0 0.00 0.01 0.01 99 1009.6
20260507073659 61 32 0.9 0.9 0.00 0.01 0.01 99 1009.5
20260507073155 61 138 0.9 0.9 0.00 0.01 0.01 99 1009.8
20260507072653 61 265 0.0 0.0 0.00 0.01 0.01 99 1009.7
20260507072150 61 11 0.9 0.9 0.00 0.01 0.01 99 1009.5
20260507071648 61 271 0.0 0.0 0.00 0.01 0.01 99 1009.3
20260507071144 61 36 0.0 0.9 0.00 0.01 0.01 99 1008.9
20260507070641 62 289 0.9 0.9 0.00 0.01 0.01 99 1009.3
20260507070138 62 301 0.0 0.0 0.00 0.01 0.01 99 1008.9
20260507065634 62 142 0.9 0.9 0.00 0.01 0.01 99 1009.1
20260507065131 62 146 1.7 1.7 0.00 0.01 0.01 99 1008.8
20260507064629 62 274 0.0 0.0 0.00 0.01 0.01 99 1008.9
20260507064127 63 94 0.0 0.9 0.00 0.01 0.01 99 1009.2
20260507063624 64 10 0.9 0.9 0.00 0.01 0.01 97 1008.8
20260507063121 64 261 0.0 0.0 0.00 0.01 0.01 94 1009.5
20260507062618 63 229 0.9 0.9 0.00 0.01 0.01 97 1009.5
20260507062116 62 196 0.0 0.9 0.00 0.01 0.01 99 1009.7
20260507061613 62 326 2.6 2.6 0.00 0.01 0.01 99 1009.5
20260507061111 62 282 0.0 0.0 0.00 0.01 0.01 99 1009.8
20260507060609 62 221 0.9 0.9 0.00 0.01 0.01 99 1009.6
20260507060105 62 269 0.0 0.0 0.00 0.01 0.01 99 1009.8
20260507055600 62 233 0.9 0.9 0.00 0.01 0.01 99 1009.7
20260507055057 62 284 0.0 0.0 0.00 0.01 0.01 99 1009.7
20260507054553 62 251 0.0 0.0 0.00 0.01 0.01 99 1009.7
20260507054050 62 281 0.0 0.0 0.00 0.01 0.01 99 1009.7
20260507053548 62 273 0.0 0.0 0.00 0.01 0.01 99 1009.6
20260507053046 62 272 0.9 0.9 0.00 0.01 0.01 99 1009.4
20260507052544 62 256 0.0 0.0 0.00 0.01 0.01 99 1008.9
20260507052040 62 264 0.0 0.0 0.00 0.01 0.01 99 1009.3
20260507051538 62 270 0.0 0.0 0.00 0.01 0.01 99 1008.7
20260507051034 62 27 0.0 0.9 0.00 0.01 0.01 99 1008.4
20260507050531 62 268 0.0 0.0 0.00 0.01 0.01 99 1008.4
20260507050027 63 268 0.0 0.0 0.00 0.01 0.01 99 1008.5
20260507045524 63 199 0.0 0.9 0.00 0.01 0.01 99 1008.7
20260507045021 63 255 0.0 0.0 0.00 0.01 0.01 99 1008.8
20260507044518 63 263 0.0 0.0 0.00 0.01 0.01 99 1008.6
20260507044015 63 59 2.6 2.6 0.00 0.01 0.01 99 1008.8
20260507043511 63 275 0.0 0.0 0.00 0.01 0.01 99 1009.2
20260507043008 63 256 0.0 0.0 0.07 0.01 0.01 99 1008.9
20260507042504 63 41 0.0 0.0 0.07 0.01 0.01 99 1009.1
20260507042000 63 260 0.0 0.0 0.00 0.00 0.00 99 1009.3
20260507041457 63 299 0.0 0.0 0.00 0.00 0.00 99 1009.4
20260507040954 63 237 0.0 0.0 0.00 0.00 0.00 99 1009.5
20260507040449 63 305 0.0 0.0 0.00 0.00 0.00 99 1009.3
20260507035945 63 271 0.0 0.0 0.00 0.02 0.02 99 1009.1
20260507035442 63 20 0.9 0.9 0.00 0.02 0.02 99 1008.8
20260507034939 64 290 0.0 0.0 0.00 0.02 0.02 99 1009.1
20260507034436 64 9 0.9 1.7 0.00 0.02 0.02 99 1009.1
20260507033934 65 347 0.9 0.9 0.00 0.02 0.02 98 1009.3
20260507033432 65 224 0.9 0.9 0.05 0.02 0.02 97 1009.4
20260507032928 65 291 0.0 0.9 0.05 0.02 0.02 96 1009.5
20260507032426 65 204 0.9 0.9 0.00 0.01 0.01 96 1009.8
20260507031921 66 254 0.0 0.0 0.00 0.01 0.01 95 1010.1
20260507031418 66 246 0.0 0.0 0.00 0.01 0.01 93 1010.1
20260507030915 66 240 0.0 0.9 0.00 0.01 0.01 92 1009.9
20260507030412 67 50 1.7 2.6 0.00 0.01 0.01 91 1009.5
20260507025909 67 209 1.7 2.6 0.00 0.01 0.01 91 1009.5
20260507025407 67 242 0.9 1.7 0.00 0.01 0.01 91 1009.3
20260507024904 67 234 3.5 5.2 0.00 0.01 0.01 90 1009.5
20260507024401 67 222 1.7 2.6 0.00 0.01 0.01 90 1009.7
20260507023857 67 309 0.9 0.9 0.00 0.01 0.01 91 1009.2
20260507023354 66 238 2.6 2.6 0.00 0.01 0.01 92 1009.2
20260507022851 66 229 2.6 4.3 0.00 0.01 0.01 94 1009.4
20260507022348 65 173 0.9 0.9 0.00 0.01 0.01 95 1009.8
20260507021844 64 277 0.0 0.0 0.00 0.01 0.01 96 1009.5
20260507021339 63 154 0.9 0.9 0.00 0.01 0.01 98 1008.9
20260507020837 62 238 0.9 0.9 0.00 0.01 0.01 99 1009.1
20260507020333 62 277 0.0 0.0 0.00 0.01 0.01 99 1009.1
20260507015830 62 296 0.0 0.0 0.00 0.01 0.01 99 1009.1
20260507015328 62 280 0.0 0.0 0.00 0.01 0.01 99 1008.6
20260507014820 62 280 0.0 0.0 0.00 0.01 0.01 99 1008.2
20260507014316 62 238 0.0 0.0 0.00 0.01 0.01 99 1008.9
20260507013812 62 259 0.0 0.0 0.00 0.01 0.01 99 1009.3
20260507013310 62 273 0.0 0.0 0.00 0.01 0.01 99 1009.3
20260507012807 62 356 0.0 0.9 0.00 0.01 0.01 98 1009.2
20260507012306 62 315 0.0 0.0 0.00 0.01 0.01 97 1009.5
20260507011800 63 253 0.0 0.0 0.00 0.01 0.01 97 1009.2
20260507011257 63 237 0.0 0.9 0.00 0.01 0.01 97 1009.3
20260507010756 64 269 0.0 0.0 0.00 0.01 0.01 96 1009.2
20260507010252 64 293 0.0 0.9 0.00 0.01 0.01 94 1009.5
20260507005750 65 274 0.0 0.0 0.00 0.01 0.01 93 1009.5
20260507005246 65 302 0.0 0.9 0.00 0.01 0.01 94 1009.5
20260507004743 65 306 0.0 0.0 0.00 0.01 0.01 93 1009.6
20260507004241 65 217 0.9 1.7 0.00 0.01 0.01 93 1009.5
20260507003737 65 228 0.0 0.0 0.00 0.01 0.01 93 1009.5
20260507003232 66 259 0.0 0.0 0.00 0.01 0.01 92 1009.3
20260507002728 66 254 0.0 0.0 0.00 0.01 0.01 91 1009.3
20260507002224 67 278 0.0 0.0 0.00 0.01 0.01 90 1009.2
20260507001721 67 228 0.9 0.9 0.00 0.01 0.01 89 1009.3
20260507001219 67 238 0.0 0.0 0.00 0.01 0.01 89 1009.2
20260507000715 67 303 0.0 0.9 0.00 0.01 0.01 89 1009.1
20260507000212 68 342 0.9 0.9 0.00 0.01 0.01 88 1009.4
20260506235708 68 246 0.9 0.9 0.00 0.01 0.01 88 1009.6
20260506235203 68 267 0.0 0.0 0.00 0.01 0.01 88 1009.2
20260506234700 68 194 0.9 1.7 0.00 0.01 0.01 87 1009.2
20260506234157 69 166 0.9 0.9 0.00 0.01 0.01 86 1008.9
20260506233655 70 216 2.6 2.6 0.00 0.01 0.01 84 1008.7
20260506233151 70 309 1.7 1.7 0.00 0.01 0.01 85 1008.8
20260506232648 70 219 3.5 5.2 0.00 0.01 0.01 84 1008.7
20260506232143 69 245 0.0 0.9 0.00 0.01 0.01 85 1009.1
20260506231640 69 168 1.7 1.7 0.00 0.01 0.01 86 1009.3
20260506231139 69 265 0.9 0.9 0.00 0.01 0.01 85 1009.4
20260506230635 69 166 4.3 6.1 0.00 0.01 0.01 85 1009.2
20260506230132 70 184 2.6 2.6 0.00 0.01 0.01 84 1009.1
20260506225629 70 221 5.2 6.1 0.00 0.01 0.01 84 1009.1
20260506225125 72 207 0.9 1.7 0.00 0.01 0.01 81 1009.1
20260506224622 73 120 0.9 0.9 0.00 0.01 0.01 79 1008.7
20260506224118 73 229 2.6 2.6 0.00 0.01 0.01 79 1008.8
20260506223615 73 303 1.7 2.6 0.00 0.01 0.01 79 1008.7
20260506223111 73 238 2.6 5.2 0.00 0.01 0.01 79 1008.5
20260506222608 73 233 2.6 4.3 0.00 0.01 0.01 79 1008.6
20260506222104 74 45 2.6 4.3 0.00 0.01 0.01 78 1008.6
20260506221602 73 165 1.7 1.7 0.00 0.01 0.01 80 1008.3
20260506221100 71 268 0.9 0.9 0.00 0.01 0.01 81 1008.4